Change the Weather History Date:

Monday, September 2, 2013

  Actual Average Record
Temperature  
Mean Temperature 81 °F -  
Max Temperature 92 °F 85 °F 92 °F (2013)
Min Temperature 71 °F 69 °F 60 °F (1999)
Cooling Degree Days 16    
Growing Degree Days 31 (Base 50)    
Moisture  
Dew Point 72 °F    
Average Humidity 80    
Maximum Humidity 94    
Minimum Humidity 55    
Precipitation  
Precipitation 0.16 in - - ()
Sea Level Pressure  
Sea Level Pressure 29.91 in    
Wind  
Wind Speed 8 mph (SSW)    
Max Wind Speed 22 mph    
Max Gust Speed 34 mph    
Visibility 8 miles    
Events Fog , Rain , Thunderstorm    
Averages and records for this station are not official NWS values.
T = Trace of Precipitation, MM = Missing Value Source: NWS Daily Summary

Daily Weather History Graph

Daily Weather History Graph

Search for Another Location

Airport or City:

Trip Planner

Search our weather history database for the weather conditions in past years. The results will help you decide how hot, cold, wet, or windy it might be!

Date:

Astronomy

Sep. 02, 2013 Rise Set
Actual Time 7:00 AM EDT 7:47 PM EDT
Civil Twilight 6:35 AM EDT 8:11 PM EDT
Nautical Twilight 6:06 AM EDT 8:41 PM EDT
Astronomical Twilight 5:36 AM EDT 9:11 PM EDT
Moon 4:22 AM EDT (9/2) 5:55 PM EDT (9/2)
Length of Visible Light 13h 36m
Length of Day
12h 46m
Waning Crescent, 8% of the Moon is Illuminated
Sep 2
Waning Crescent
Sep 5
New
Sep 12
First Quarter
Sep 19
Full
Sep 26
Last Quarter

Hourly Weather History & Observations

Time (EDT) Temp. Heat Index Dew Point Humidity Pressure Visibility Wind Dir Wind Speed Gust Speed Precip Events Conditions
12:58 AM 79.7 °F - 73.9 °F 82% 29.93 in 10.0 mi SSW 5.8 mph - N/A   Clear
1:58 AM 77.9 °F - 73.8 °F 87% 29.93 in 10.0 mi SW 5.8 mph - N/A   Clear
2:58 AM 76.8 °F - 73.4 °F 89% 29.91 in 10.0 mi SSW 6.9 mph - N/A   Clear
3:58 AM 76.5 °F - 73.4 °F 90% 29.91 in 10.0 mi SSW 6.9 mph - N/A   Clear
4:58 AM 75.7 °F - 73.2 °F 92% 29.91 in 10.0 mi SSW 2.3 mph - N/A   Clear
5:58 AM 74.8 °F - 72.9 °F 94% 29.91 in 10.0 mi SW 4.6 mph - N/A   Clear
6:58 AM 74.7 °F - 72.9 °F 94% 29.92 in 10.0 mi SW 4.6 mph - N/A   Clear
7:58 AM 75.7 °F - 73.9 °F 94% 29.94 in 10.0 mi SW 5.8 mph - N/A   Clear
8:58 AM 79.2 °F - 74.8 °F 87% 29.95 in 10.0 mi SSW 6.9 mph - N/A   Partly Cloudy
9:58 AM 82.9 °F 90.2 °F 75.0 °F 77% 29.97 in 10.0 mi WSW 11.5 mph - N/A   Partly Cloudy
10:58 AM 86.2 °F 95.1 °F 75.0 °F 69% 29.97 in 10.0 mi West 13.8 mph - N/A   Clear
11:58 AM 88.5 °F 98.3 °F 74.8 °F 64% 29.96 in 10.0 mi WSW 8.1 mph - N/A   Clear
12:58 PM 89.1 °F 99.1 °F 74.8 °F 63% 29.95 in 10.0 mi WSW 9.2 mph - N/A   Clear
1:58 PM 90.0 °F 99.6 °F 74.5 °F 60% 29.93 in 10.0 mi WSW 8.1 mph - N/A   Partly Cloudy
2:26 PM 91.4 °F 102.5 °F 75.2 °F 59% 29.90 in 10.0 mi WSW 9.2 mph - N/A Rain Light Rain
2:35 PM 91.4 °F 102.5 °F 75.2 °F 59% 29.90 in 10.0 mi SW 9.2 mph - N/A   Partly Cloudy
2:58 PM 91.9 °F 101.3 °F 73.9 °F 55% 29.90 in 10.0 mi West 8.1 mph - 0.00 in   Clear
3:58 PM 89.8 °F 99.7 °F 74.5 °F 61% 29.87 in 10.0 mi SW 8.1 mph - N/A   Mostly Cloudy
4:58 PM 91.4 °F 100.7 °F 73.6 °F 56% 29.85 in 10.0 mi Variable 5.8 mph - N/A   Partly Cloudy
5:58 PM 91.0 °F 101.0 °F 74.5 °F 58% 29.87 in 10.0 mi West 8.1 mph - N/A   Clear
6:58 PM 87.1 °F 94.9 °F 73.6 °F 64% 29.84 in 10.0 mi SSW 4.6 mph - N/A Thunderstorm Clear
7:08 PM 86.0 °F 95.1 °F 75.2 °F 70% 29.85 in 10.0 mi South 8.1 mph - N/A Thunderstorm Thunderstorm
7:26 PM 82.4 °F 87.2 °F 71.6 °F 70% 29.86 in 10.0 mi Variable 6.9 mph - N/A Thunderstorm Mostly Cloudy
7:35 PM 82.4 °F 87.2 °F 71.6 °F 70% 29.86 in 10.0 mi Variable 4.6 mph - N/A Thunderstorm Thunderstorm
7:49 PM 82.4 °F 87.2 °F 71.6 °F 70% 29.88 in 9.0 mi North 10.4 mph - N/A Rain , Thunderstorm Light Thunderstorms and Rain
7:54 PM 80.6 °F 85.4 °F 73.4 °F 79% 29.88 in 2.5 mi NNE 11.5 mph - N/A Rain , Thunderstorm Heavy Thunderstorms and Rain
7:58 PM 78.8 °F - 73.4 °F 83% 29.89 in 2.0 mi ENE 6.9 mph - 0.03 in Rain , Thunderstorm Heavy Thunderstorms and Rain
8:08 PM 77.0 °F - 73.4 °F 89% 29.89 in 6.0 mi West 10.4 mph - N/A Rain , Thunderstorm Light Thunderstorms and Rain
8:13 PM 77.0 °F - 73.4 °F 89% 29.92 in 1.2 mi WSW 10.4 mph - N/A Rain , Thunderstorm Heavy Thunderstorms and Rain
8:16 PM 77.0 °F - 73.4 °F 89% 29.92 in 0.8 mi South 17.3 mph 25.3 mph N/A Rain , Thunderstorm Heavy Thunderstorms and Rain
8:18 PM 75.2 °F - 73.4 °F 94% 29.90 in 0.8 mi SSE 21.9 mph 34.5 mph N/A Rain , Thunderstorm Heavy Thunderstorms and Rain
8:19 PM 75.2 °F - 71.6 °F 89% 29.91 in 0.5 mi SE 17.3 mph 34.5 mph N/A Fog , Rain , Thunderstorm Heavy Thunderstorms and Rain
8:20 PM 75.2 °F - 71.6 °F 89% 29.91 in 0.5 mi ESE 15.0 mph 34.5 mph N/A Rain , Thunderstorm Heavy Thunderstorms and Rain
8:21 PM 75.2 °F - 69.8 °F 83% 29.91 in 0.5 mi East 20.7 mph 34.5 mph N/A Rain , Thunderstorm Heavy Thunderstorms and Rain
8:23 PM 75.2 °F - 68.0 °F 78% 29.91 in 0.8 mi East 18.4 mph 34.5 mph N/A Rain , Thunderstorm Heavy Thunderstorms and Rain
8:28 PM 73.4 °F - 66.2 °F 78% 29.88 in 0.8 mi ENE 17.3 mph 28.8 mph N/A Rain , Thunderstorm Heavy Thunderstorms and Rain
8:33 PM 73.4 °F - 66.2 °F 78% 29.88 in 1.5 mi East 11.5 mph 26.5 mph N/A Rain , Thunderstorm Heavy Thunderstorms and Rain
8:38 PM 71.6 °F - 66.2 °F 83% 29.89 in 4.0 mi East 10.4 mph - N/A Rain , Thunderstorm Light Thunderstorms and Rain
8:43 PM 71.6 °F - 68.0 °F 88% 29.89 in 8.0 mi East 8.1 mph - N/A Rain , Thunderstorm Light Thunderstorms and Rain
8:48 PM 71.6 °F - 68.0 °F 88% 29.89 in 10.0 mi South 6.9 mph - N/A Rain , Thunderstorm Light Thunderstorms and Rain
8:55 PM 71.6 °F - 68.0 °F 88% 29.90 in 10.0 mi SSW 5.8 mph - N/A Rain , Thunderstorm Light Rain
8:58 PM 71.6 °F - 68.0 °F 88% 29.91 in 10.0 mi Variable 4.6 mph - 0.10 in Thunderstorm Light Drizzle
9:01 PM 71.6 °F - 69.8 °F 94% 29.90 in 10.0 mi SE 5.8 mph - N/A Thunderstorm Scattered Clouds
9:58 PM 72.9 °F - 70.7 °F 93% 29.94 in 10.0 mi Variable 5.8 mph - 0.02 in   Scattered Clouds
10:58 PM 72.9 °F - 70.3 °F 92% 29.95 in 10.0 mi West 9.2 mph - N/A   Scattered Clouds
11:16 PM 71.6 °F - 69.8 °F 94% 29.92 in 10.0 mi SW 3.5 mph - N/A Rain Light Rain
11:27 PM 71.6 °F - 69.8 °F 94% 29.92 in 10.0 mi WSW 2.3 mph - N/A   Partly Cloudy
11:32 PM 71.6 °F - 69.8 °F 94% 29.92 in 10.0 mi SSW 2.3 mph - N/A Rain Light Rain
11:58 PM 72.3 °F - 70.5 °F 94% 29.91 in 10.0 mi East 5.8 mph - 0.01 in Rain Light Rain